STARLINK-6107 (56117 NORAD) Tracking and Keplerian Element Data

This shows tracking and keplerian element data for the satellite.

Feedback or suggestion? Click here.




ElementValue
Catalog56117
NameSTARLINK-6107
Epoch Orbit656
Epoch Day127.25001157
Epoch Year2023
RAAN33.7157
Inclination43.0014
Eccentricity0.0001311
Argument of Perigee282.9274
Mean Anonmoly327.1593
Mean Motion15.488823
Decay Rate0.0006948
L11 56117U 23046AA 23127.25001157 .00069480 00000+0 12525-2 0 9994
L22 56117 43.0014 33.7157 0001311 282.9274 327.1593 15.48882300 6566



Live tracking and technical data element details for STARLINK-6107 (NORAD 56117). STARLINK-6107 can be tracked NOW for your location showing map with azimuth and elevation plus other details from your city location.







IsCatalogInMostPopularTable: catalog: 56117, numindb: 6
Update: records affected: 1



GetName: 56117 STARLINK-6107

Hit Count: updated at: Sat, 03 Jun 2023 17:51:54 GMT